This is the latest recevied weather packets stored in our database for station/object JL1LCW-13. If no packets are shown the sender has not sent any weather packets the latest 10 day(s).
| Time | Temp. | Humidity | Pressure | Rain* | Wind** | Luminosity | Snow |
|---|---|---|---|---|---|---|---|
| 1777574218 | 12.22° C | 99% | 1014 hPa | 1.78 mm | - | - | - |
| 1777571517 | 12.22° C | 99% | 1015 hPa | 2.29 mm | - | - | - |
| 1777570619 | 12.22° C | 99% | 1015 hPa | 2.03 mm | - | - | - |
| 1777567918 | 12.22° C | 99% | 1016 hPa | 1.52 mm | - | - | - |
| 1777567018 | 12.22° C | 99% | 1016 hPa | 1.27 mm | - | - | - |
| 1777564318 | 12.22° C | 99% | 1017 hPa | 1.27 mm | - | - | - |
| 1777563418 | 12.22° C | 99% | 1017 hPa | 1.02 mm | - | - | - |
| 1777560719 | 12.22° C | 99% | 1018 hPa | 0 mm | - | - | - |
| 1777559819 | 12.78° C | 99% | 1019 hPa | 0 mm | - | - | - |
| 1777557118 | 12.78° C | 99% | 1020 hPa | 0 mm | - | - | - |
| 1777556219 | 12.78° C | 99% | 1020 hPa | 0 mm | - | - | - |
| 1777553518 | 12.78° C | 99% | 1020 hPa | 0 mm | - | - | - |
| 1777552618 | 12.78° C | 99% | 1020 hPa | 0 mm | - | - | - |
| 1777549918 | 13.89° C | 99% | 1021 hPa | 0 mm | - | - | - |
| 1777549018 | 13.89° C | 99% | 1021 hPa | 0 mm | - | - | - |
| 1777546319 | 13.89° C | 91% | 1021 hPa | 0 mm | - | - | - |
| 1777545418 | 13.89° C | 90% | 1021 hPa | 0 mm | - | - | - |
| 1777542719 | 13.89° C | 87% | 1020 hPa | 0 mm | - | - | - |
| 1777541818 | 13.89° C | 85% | 1020 hPa | 0 mm | - | - | - |
| 1777539118 | 13.89° C | 90% | 1020 hPa | 0 mm | - | - | - |
| 1777538219 | 13.89° C | 89% | 1020 hPa | 0 mm | - | - | - |
| 1777535518 | 15° C | 91% | 1021 hPa | 0 mm | - | - | - |
| 1777534617 | 15° C | 87% | 1021 hPa | 0 mm | - | - | - |
| 1777531918 | 15° C | 85% | 1021 hPa | 0 mm | - | - | - |
| 1777531018 | 15° C | 87% | 1021 hPa | 0 mm | - | - | - |
* Rain latest hour (hover to see other rain measurements)
** Current wind speed in m/s (hover to see current wind gust speed)